CAPE
2997 1888 1597 1758 1555 1646 1122 1274 1412 3050 2885 2015 2322 2244 1842 2144 2075 2721 2210 2193 2899 1899
2841 2218 1870 2027 1856 1676 2184 1146 2380 2415 2034 2064 2125 2158 2352 2469 2177 2768 2279 2626 2335 2010
2680 2471 2645 2136 1856 2896 2709 2165 2537 2042 2045 2284 2164 2531 2669 2609 2940 2540 2082 1886 2972 2365
3337 2553 2223 2116 1971 1888 2231 2371 2000 2201 1850 2515 2364 2378 3108 3227 1529 2377 2495 2139 2130 2377
3153 2644 2502 2442 2484 1862 2381 2306 2426 2384 1997 2480 2766 2326 2070 2852 1769 2416 2299 2111 2056 1798
3131 2797 2440 2269 2772 2068 2573 2387 2238 2995 2658 2741 2437 2250 2313 2087 2186 2100 2010 1860 1716 1681
3264 3096 2644 2733 3156 2532 3154 2765 3229 2846 3306 2873 2519 2444 2339 2709 2712 2428 2122 1904 1716 1857
4431 3994 3688 3679 3798 3289 3100 3002 3224 3307 3094 2685 2532 2278 2948 2306 2394 2668 2306 2230 2462 2597
4869 4279 3937 3758 4013 3040 3398 3313 3676 3607 3367 2812 2345 1550 1131 1250 1808 2540 2790 2707 2607 3372
4288 4391 4303 3799 4098 3945 3788 3914 4057 3741 3614 3320 3304 1606 906 901 1775 2110 2800 3277 2672 2456
4651 4373 4408 4225 4311 4333 4146 4207 4240 4230 4162 3818 3205 302 186 378 2616 2803 2969 2928 2729 2974
4986 4781 4708 4296 4591 4456 4573 4615 4444 4374 4472 3996 2971 1 0 43 2277 2373 2811 2462 2280 1906
4931 5417 5153 5174 5155 5123 4324 4394 3354 3450 4055 3803 1405 0 0 0 1462 1610 982 648 613 0
5159 5366 5345 5490 5264 5152 4821 4254 4727 4694 4415 3865 2534 0 0 0 11 178 55 0 0 0
CIN
0 -1 -6 0 -1 -7 0 -15 -48 0 0 0 0 0 0 0 0 -12 0 0 0 -5
0 0 0 -22 -4 -23 -15 -2 -23 0 0 0 0 0 0 -1 -2 0 0 0 0 0
-2 0 0 0 0 -2 -10 -13 -16 0 0 0 0 0 0 -1 -3 0 0 -2 -6 -2
0 0 0 0 0 -2 0 0 0 0 0 0 0 0 0 -7 -38 -6 0 -1 0 0
0 0 0 0 -2 0 0 0 0 0 0 0 0 0 0 -2 -13 -2 0 0 0 0
0 0 0 -3 -1 0 0 0 0 0 0 0 -2 0 0 0 0 0 0 0 0 0
0 0 0 0 0 0 0 0 0 -1 0 0 0 0 0 0 0 0 0 0 0 0
0 0 0 0 0 -1 -1 0 0 0 -1 0 0 0 -1 0 0 0 0 0 0 0
0 0 0 -5 0 -9 -1 -1 0 0 0 0 0 -3 -19 -29 -1 0 0 0 0 0
0 0 0 0 0 0 0 0 0 0 0 0 0 -50 -99 -99 -22 -8 0 0 0 0
0 0 0 0 0 0 0 0 0 0 0 0 -5 -388 -413 -327 -18 0 0 0 0 0
-1 0 0 0 0 0 0 0 0 0 0 0 -19 0 0 -388 -13 0 0 0 0 0
-3 0 0 0 0 0 0 0 0 0 0 -4 -172 0 0 0 -37 -9 -40 -60 -44 0
0 0 0 0 0 0 0 0 0 0 -1 0 -44 0 0 0 -44 -196 -273 0 0 0
Wind_Speed
12 9 7 9 7 8 9 8 9 10 10 9 7 7 6 6 6 5 4 6 5 8
11 11 10 10 10 6 7 9 6 10 8 9 8 7 6 4 7 7 5 6 6 6
11 12 12 9 9 9 4 10 7 9 9 8 8 7 5 7 9 6 6 8 6 4
11 14 12 10 11 10 9 8 7 6 6 8 9 8 6 5 4 5 6 7 5 7
13 12 13 11 10 13 10 9 9 9 9 9 9 6 7 7 9 9 7 8 8 7
14 14 13 13 10 12 11 11 12 10 7 10 7 8 8 8 9 8 9 9 8 9
13 13 13 12 11 12 11 11 10 7 9 11 10 9 9 9 9 9 10 9 10 10
10 10 11 8 9 9 9 10 12 11 12 10 9 10 11 10 10 9 10 10 10 11
9 10 10 9 9 9 9 10 12 11 11 10 10 5 7 7 9 8 8 8 10 11
11 11 10 11 11 12 13 13 12 12 12 12 11 3 7 8 9 10 10 9 9 10
12 12 12 12 12 11 11 11 10 11 11 10 8 8 8 6 9 10 11 11 11 10
13 13 13 13 12 12 10 10 11 10 11 10 7 6 2 3 8 10 10 7 8 9
13 13 14 13 12 11 11 11 11 12 11 7 10 8 3 5 6 7 6 6 6 8
12 13 13 12 11 11 12 11 11 11 8 9 11 9 8 4 4 5 5 5 5 7
Wind_Direction
201 197 209 219 213 212 193 196 219 195 216 212 216 216 235 243 257 235 222 222 251 294
196 207 203 220 216 242 202 178 193 187 201 228 229 234 235 256 260 263 239 242 227 250
190 201 220 203 199 245 228 165 202 193 218 224 225 228 210 227 231 226 234 240 169 234
187 200 212 213 192 222 240 203 226 216 218 242 241 215 221 246 286 217 252 279 247 227
196 200 189 219 202 192 224 219 219 224 217 224 232 223 215 215 257 213 217 235 245 257
197 198 193 199 219 200 198 220 219 220 228 247 241 216 230 234 242 252 250 250 260 260
205 204 208 205 199 206 194 207 227 223 226 242 219 223 233 243 240 254 262 265 271 270
200 211 205 215 196 211 219 212 205 213 226 225 232 232 220 240 260 252 260 265 264 257
204 209 215 198 199 201 201 213 218 215 219 216 239 235 197 229 265 251 256 278 275 264
202 206 208 202 200 201 203 213 208 214 218 222 230 165 181 185 236 252 256 251 259 272
198 204 203 201 207 210 211 215 214 215 221 225 222 137 156 175 237 246 256 262 271 268
197 198 200 203 201 203 207 212 215 217 218 219 153 87 79 220 241 238 236 266 296 305
213 201 199 201 200 200 200 208 211 210 213 202 134 142 159 250 258 258 261 273 258 238
217 217 205 199 197 197 203 209 209 208 196 164 163 160 166 140 235 263 286 284 293 68